Temp_Advection
nan nan nan nan nan nan nan nan nan nan nan nan nan nan nan nan nan nan nan nan nan nan nan nan nan nan nan nan nan nan nan nan nan nan nan nan nan nan nan nan nan nan nan nan nan nan nan nan nan nan nan nan nan nan nan nan nan nan nan nan nan nan nan nan nan nan nan nan nan
nan -1 -1 -1 -0 -0 -0 -0 -0 -0 -0 -0 -0 -0 -0 -0 -0 -0 -0 -0 -0 -0 -0 -0 0 0 0 0 0 -0 -0 -0 -1 -1 -0 -0 -1 -1 -1 -1 -0 -0 -0 -0 -0 -0 -0 -0 -0 -0 -0 -0 -0 -0 -0 -0 -0 -0 -0 -0 0 0 0 -0 -0 0 0 0 nan
nan -1 -1 -1 -1 -1 -1 -1 -1 -0 -0 -0 -0 -0 -0 -0 -0 -0 -0 -0 -0 -0 -0 -0 -0 -0 0 0 0 0 -0 -0 -0 -0 -0 -0 -0 -0 -1 -1 -1 -1 -0 -0 -0 -0 -0 -0 -0 -0 -0 -0 -0 -0 -0 -0 -0 -0 -0 -0 -0 0 0 0 0 -0 -0 -0 nan
nan -1 -1 -1 -1 -1 -1 -1 -1 -1 -1 -0 -0 -0 -0 -0 -0 -0 -0 -0 -0 -0 -0 -0 -0 -0 -0 -0 0 0 0 0 0 -0 -0 -0 -0 -0 -0 -1 -1 -1 -1 -1 -0 -0 -0 -0 -0 -0 -0 -0 -0 -0 -0 -0 -0 -0 -0 -0 -0 -0 -0 0 0 -0 -0 -0 nan
nan -1 -1 -1 -1 -1 -1 -1 -1 -1 -1 -1 -1 -0 -0 -0 -0 -0 -0 -0 -0 -0 -0 -0 -0 -0 -0 -0 0 0 0 0 0 0 0 -0 -0 -0 -0 -0 -0 -1 -1 -1 -1 -1 -0 -0 -0 -0 -0 0 -0 -0 -0 -0 -0 -0 -0 -0 -0 -0 -0 -0 -0 -0 -0 -0 nan
nan -1 -1 -1 -1 -1 -1 -1 -1 -1 -1 -1 -1 -1 -1 -0 -0 -0 -0 -0 -0 -0 -0 -0 -0 -0 -0 -0 -0 -0 0 0 0 0 0 0 0 -0 -0 -0 -0 -0 -0 -0 -0 -1 -1 -1 -0 -0 -0 -0 0 0 0 -0 -0 -0 -0 -0 -0 -0 -0 -0 -0 -0 -0 -0 nan
nan -1 -1 -1 -1 -1 -1 -1 -1 -1 -1 -1 -1 -1 -1 -1 -1 -1 -0 -0 -0 -0 -1 -1 -1 -1 -1 -1 -1 -0 -0 -0 0 0 0 0 0 0 0 -0 -0 -0 -0 -0 -0 -0 -0 -0 -0 -0 -0 -0 -0 -0 0 0 0 -0 -0 -0 -0 -0 -0 -0 -0 -0 -0 -0 nan
nan -1 -1 -1 -1 -1 -1 -1 -1 -1 -1 -1 -1 -1 -1 -1 -1 -1 -1 -1 -1 -1 -1 -1 -1 -1 -1 -1 -1 -1 -1 -0 -0 -0 0 0 0 0 0 0 0 -0 -0 -0 -0 -0 -0 -0 -0 -0 -0 -0 -0 -0 -0 0 0 0 -0 -0 -0 -0 -0 -0 -0 -0 -0 -0 nan
nan -0 -0 -0 -1 -1 -1 -1 -1 -1 -1 -1 -1 -1 -1 -1 -1 -1 -1 -1 -1 -1 -1 -1 -1 -1 -1 -1 -1 -1 -1 -1 -1 -0 -0 -0 0 0 0 0 0 0 0 -0 -0 -0 -0 -0 -0 -0 -0 -0 -0 -0 -0 -0 -0 0 0 0 -0 -0 -0 -0 -0 -0 -0 -0 nan
nan -0 -0 -0 -0 -0 -0 -0 -1 -1 -1 -1 -1 -1 -1 -1 -1 -1 -1 -1 -1 -1 -1 -1 -1 -1 -1 -1 -1 -1 -1 -1 -1 -1 -1 -0 -0 -0 0 0 0 0 0 0 0 -0 -0 -0 -0 -0 -0 -0 -0 -0 -0 -0 -0 -0 0 0 0 0 -0 -0 -0 -0 -0 -0 nan
nan -0 -0 -0 -0 -0 -0 -0 -0 -0 -1 -1 -1 -1 -1 -1 -1 -1 -1 -1 -1 -1 -1 -1 -1 -1 -1 -1 -1 -1 -1 -1 -1 -1 -1 -1 -1 -0 -0 -0 0 0 0 0 0 0 0 -0 -0 -0 -0 -0 -0 -0 -0 -0 -0 -0 -0 0 0 0 0 0 0 0 0 0 nan
nan -0 -0 -0 -0 -0 -0 -0 -0 -0 -0 -0 -1 -1 -1 -1 -1 -1 -1 -1 -1 -1 -1 -1 -1 -1 -1 -1 -1 -1 -1 -1 -1 -1 -1 -1 -1 -1 -1 -0 -0 0 0 0 0 0 0 0 0 -0 -0 -0 -0 -0 -0 -0 -0 0 0 0 0 0 0 0 0 0 0 0 nan
nan -0 -0 -0 -0 -0 -0 -0 -0 -0 -0 -1 -1 -1 -1 -1 -1 -1 -1 -1 -1 -1 -1 -1 -1 -1 -1 -1 -1 -1 -1 -1 -1 -1 -1 -1 -1 -1 -1 -1 -1 -0 -0 0 0 0 0 0 0 0 0 0 0 -0 -0 -0 -0 -0 0 0 0 0 0 0 0 0 0 0 nan
nan -0 -0 -0 -0 -0 -1 -1 -1 -1 -1 -1 -1 -1 -1 -0 -0 -1 -1 -1 -1 -1 -1 -1 -1 -1 -1 -1 -1 -1 -1 -1 -1 -1 -1 -1 -1 -1 -1 -1 -1 -1 -1 -0 -0 -0 0 0 0 0 0 0 0 0 0 -0 -0 -0 -0 0 0 0 0 0 0 0 0 0 nan
nan -0 -0 -0 -0 -0 -1 -1 -1 -1 -1 -1 -1 -1 -1 -1 -0 -1 -1 -1 -1 -1 -1 -1 -1 -0 -0 -1 -1 -1 -1 -1 -1 -1 -1 -1 -1 -1 -1 -1 -1 -1 -1 -1 -1 -1 -0 -0 0 0 0 0 0 0 0 0 0 0 -0 -0 -0 0 0 0 0 0 0 0 nan
nan -0 -0 -0 -0 -0 -0 -1 -1 -1 -1 -1 -1 -1 -1 -1 -1 -1 -1 -1 -1 -1 -1 -1 -1 -1 -0 -0 -0 -1 -0 -0 -0 -1 -1 -1 -1 -1 -1 -1 -1 -1 -1 -1 -1 -1 -1 -1 -0 -0 -0 0 0 0 0 0 0 0 0 0 -0 -0 -0 0 0 0 0 -0 nan
nan -0 -0 -0 -0 -1 -1 -1 -1 -1 -1 -1 -1 -1 -1 -1 -1 -1 -1 -1 -1 -1 -0 -1 -1 -1 -1 -1 -1 -1 -1 -1 -0 -0 -1 -1 -1 -1 -1 -1 -1 -1 -1 -1 -1 -1 -1 -1 -1 -1 -0 -0 -0 0 0 0 0 0 0 0 0 0 -0 -0 -0 0 0 0 nan
nan 0 -0 -0 -0 -1 -1 -1 -1 -1 -1 -1 -1 -1 -1 -1 -1 -1 -1 -1 -1 -1 -1 -1 -1 -1 -1 -1 -1 -1 -1 -1 -1 -1 -1 -1 -1 -1 -1 -1 -1 -1 -1 -1 -1 -1 -1 -1 -1 -1 -1 -1 -1 -0 -0 -0 0 0 0 0 0 0 0 0 -0 -0 -0 0 nan
nan -0 0 0 -0 -0 -0 -1 -1 -1 -1 -1 -1 -1 -1 -1 -1 -1 -1 -1 -1 -1 -1 -1 -1 -1 -1 -1 -1 -0 -1 -1 -1 -1 -1 -0 -1 -0 -0 -1 -1 -1 -1 -1 -1 -1 -1 -1 -1 -1 -1 -1 -1 -1 -1 -0 -0 -0 0 0 0 0 0 0 0 0 -0 -0 nan
nan -0 -0 -0 -0 -0 0 -0 -0 -1 -1 -1 -1 -1 -1 -1 -1 -1 -1 -1 -1 -1 -1 -1 -1 -1 -1 -1 -1 -1 -0 -1 -1 -1 -0 -0 -0 -0 -0 -0 -0 -0 -0 -1 -1 -1 -1 -1 -1 -1 -1 -1 -1 -1 -1 -1 -1 -1 -0 -0 0 0 0 0 0 0 0 0 nan
nan -1 -1 -0 -0 -0 0 0 0 0 -0 -0 -1 -1 -1 -1 -1 -1 -1 -1 -1 -1 -1 -1 -1 -1 -1 -1 -1 -1 -1 -1 -1 -1 -0 -0 -0 -0 -0 -0 -0 -0 -0 -0 -0 -1 -1 -1 -1 -1 -1 -1 -1 -1 -1 -1 -1 -1 -1 -1 -0 -0 -0 0 0 0 0 0 nan
nan -1 -1 -1 -0 -0 -0 0 0 0 0 0 0 -0 -0 -1 -1 -1 -1 -1 -1 -1 -1 -1 -1 -1 -1 -1 -1 -1 -1 -1 -1 -1 -1 -0 -0 -0 -0 -0 -0 -0 -0 -0 -0 -0 -0 -0 -0 -1 -1 -1 -1 -0 -1 -1 -1 -1 -1 -1 -1 -0 -0 -0 -0 0 0 0 nan
nan -1 -1 -0 -0 -0 -0 -0 -0 -0 0 0 0 0 0 0 -0 -1 -1 -1 -1 -1 -1 -1 -1 -1 -1 -1 -1 -1 -1 -1 -1 -1 -1 -1 -0 -0 -0 -0 -0 -0 -0 -0 -0 -0 -0 -0 -0 -0 -0 -0 -0 -0 -0 -0 -1 -1 -1 -1 -1 -0 -0 -0 -0 -0 0 0 nan
nan -0 -0 -0 -0 -0 -0 -1 -0 -0 -0 -0 -0 -0 0 0 0 0 -0 -0 -1 -1 -1 -1 -2 -1 -1 -1 -1 -1 -1 -1 -1 -1 -1 -1 -1 -0 -0 -0 -0 -0 -0 -0 -0 -0 -0 -0 -0 -0 -0 -0 -0 -0 -0 -0 -0 -1 -1 -1 -1 -1 -0 -0 -0 -1 -0 -0 nan
nan -0 -0 -0 -0 -0 -1 -1 -1 -1 -1 -1 -1 -1 -0 -0 -0 0 0 0 -0 -1 -1 -1 -1 -1 -2 -1 -1 -1 -1 -1 -1 -1 -1 -1 -1 -1 -1 -1 -0 -0 -0 -0 -0 -0 -0 -0 -0 -1 -1 -1 -1 -1 -0 -0 -0 -0 -1 -1 -1 -1 -1 -0 -0 -0 -1 -1 nan
nan -1 -0 -0 -0 -0 -0 -1 -1 -1 -1 -1 -1 -1 -1 -1 -1 -0 -0 0 0 0 -0 -0 -1 -1 -1 -1 -1 -1 -1 -1 -1 -2 -2 -2 -1 -1 -1 -1 -1 -1 -1 -0 -0 -0 -0 -0 -0 -0 -0 -1 -1 -1 -1 -0 -0 -0 -0 -0 -1 -1 -1 -1 -0 -0 -0 -1 nan
nan -1 -1 -0 -0 -0 -0 -0 -0 -0 -1 -1 -1 -1 -1 -1 -1 -1 -1 -0 -0 0 0 -0 -0 -0 -1 -1 -1 -1 -1 -1 -1 -2 -2 -2 -2 -2 -1 -1 -1 -1 -1 -0 -0 -0 -0 -0 -0 0 -0 -0 -0 -1 -1 -1 -1 -0 -0 -0 -0 -0 -0 -0 -0 -0 -0 -0 nan
nan -1 -1 -1 -1 -0 -0 -0 -0 -0 -0 -0 -1 -1 -1 -1 -1 -1 -1 -1 -1 -0 -0 -0 -0 -0 -0 -0 -1 -1 -1 -1 -1 -1 -2 -2 -2 -2 -2 -2 -1 -1 -1 -1 -0 -0 -0 -0 -0 -0 0 0 -0 -0 -1 -1 -1 -1 -1 -1 -1 -0 -0 -0 -0 -0 -0 -0 nan
nan -1 -2 -1 -1 -1 -0 -0 -0 -0 -0 -0 -0 -0 -0 -0 -0 -1 -1 -1 -1 -1 -1 -1 -0 -0 -0 -0 -0 -0 -0 -1 -1 -1 -1 -1 -1 -2 -1 -2 -1 -1 -1 -1 -1 -0 -0 -0 -0 -0 0 0 -0 -0 -0 -1 -1 -1 -1 -1 -1 -1 -0 -0 -0 -0 0 0 nan
nan -1 -1 -2 -1 -1 -1 -1 -1 -1 -0 -0 -0 0 0 -0 -0 -0 -0 -1 -1 -1 -1 -1 -1 -1 -0 -0 -0 -0 -0 -0 -0 -1 -1 -1 -1 -1 -2 -2 -2 -1 -1 -1 -1 -1 -0 -0 -0 -0 0 0 -0 -0 -1 -1 -1 -1 -1 -1 -1 -1 -1 -1 -0 -0 0 0 nan
nan -1 -1 -1 -1 -1 -1 -1 -1 -1 -1 -1 -1 -0 -0 -0 -0 0 0 -0 -0 -0 -0 -0 -0 -0 -0 -0 -0 -0 -0 -0 -0 -0 -0 -1 -1 -1 -1 -1 -1 -1 -1 -1 -1 -1 -1 -1 -0 -0 0 0 -0 -0 -0 -1 -1 -1 -1 -1 -1 -1 -1 -1 -1 -0 -0 0 nan
nan -1 -1 -1 -1 -1 -1 -1 -1 -1 -1 -1 -1 -1 -1 -1 -0 -0 0 0 -0 -0 -0 -0 -0 -0 -0 -0 -0 -0 -0 -0 -1 -0 -0 -1 -1 -1 -1 -1 -1 -1 -1 -1 -1 -1 -1 -1 -1 -0 0 0 0 -0 -0 -1 -1 -1 -1 -1 -1 -1 -1 -1 -1 -1 -0 -0 nan
nan -0 -0 -1 -1 -1 -1 -1 -1 -1 -1 -1 -1 -1 -1 -1 -1 -1 -0 0 -0 -0 -0 -0 -0 -0 -0 -0 -0 -0 -0 -0 -0 -0 -0 -1 -1 -1 -1 -1 -1 -1 -1 -1 -1 -1 -1 -1 -1 -1 -0 0 0 -0 -0 -0 -1 -1 -1 -1 -1 -1 -1 -1 -1 -1 -1 -0 nan
nan -0 -0 -0 -1 -1 -1 -1 -1 -1 -1 -1 -1 -1 -1 -1 -1 -1 -1 -1 -0 -0 -0 -0 -0 -0 -0 -0 -0 -0 -0 0 0 0 0 -0 -1 -1 -1 -1 -1 -1 -1 -1 -1 -1 -1 -1 -1 -1 -0 -0 -0 -0 -0 -0 -0 -1 -1 -1 -1 -1 -1 -1 -1 -1 -1 -1 nan
nan -0 -0 -1 -1 -1 -1 -1 -1 -1 -1 -1 -1 -1 -1 -1 -1 -1 -1 -1 -1 -1 -1 -0 -0 -0 -0 -0 -0 -0 -0 -0 0 1 1 1 -0 -1 -1 -1 -1 -1 -0 -0 -0 -1 -1 -1 -1 -1 -1 -1 -1 -1 -1 -1 -1 -1 -1 -1 -1 -1 -1 -1 -1 -1 -1 -1 nan
nan -0 -1 -1 -1 -1 -1 -1 -1 -1 -1 -1 -1 -1 -1 -1 -1 -1 -1 -1 -1 -1 -1 -1 -1 -0 -0 -0 -0 -0 -0 -0 -0 0 1 1 1 -0 -1 -1 -1 -1 -1 -0 -0 -1 -1 -1 -1 -1 -1 -1 -1 -1 -1 -1 -1 -1 -1 -1 -1 -1 -0 -0 -0 -1 -1 -1 nan
nan -0 -0 -1 -1 -1 -1 -1 -1 -1 -1 -1 -1 -1 -1 -1 -1 -1 -1 -1 -2 -2 -2 -2 -1 -1 -1 -1 -1 -0 -0 -0 -1 -1 -0 1 1 0 -0 -1 -1 -0 -0 -1 -1 -1 -1 -1 -0 -0 -1 -1 -1 -1 -1 -1 -1 -2 -2 -1 -1 -1 -0 -0 -0 -0 -0 -1 nan
nan 0 -0 -0 -1 -1 -1 -1 -1 -1 -1 -1 -1 -1 -1 -1 -1 -1 -1 -1 -1 -2 -3 -3 -2 -2 -1 -1 -1 -1 -0 -0 -0 -0 -1 -0 0 0 -0 -1 -0 0 1 0 -0 -1 -1 -1 -1 -0 -0 -1 -1 -1 -1 -2 -2 -2 -2 -2 -2 -1 -1 -0 -0 -0 -1 -1 nan
nan 0 0 -0 -0 -1 -1 -1 -1 -1 -1 -1 -1 -1 -1 -1 -1 -1 -1 -0 -0 -1 -2 -3 -3 -2 -1 -1 -2 -2 -1 -0 0 0 -0 -0 -0 0 -0 -1 -1 0 1 1 1 0 -1 -1 -1 -1 -0 -0 -1 -1 -1 -2 -2 -2 -2 -2 -2 -2 -1 -1 -0 -1 -1 -1 nan
nan -0 0 -0 -0 -0 -0 -1 -0 -0 -0 -1 -1 -1 -1 -1 -1 -1 -1 -1 -0 -0 -1 -2 -3 -3 -2 -2 -2 -3 -3 -2 -0 1 1 0 0 0 -0 -1 -1 -1 0 2 2 2 1 -0 -1 -1 -1 -1 -1 -1 -1 -1 -2 -2 -2 -2 -2 -2 -1 -1 -1 -1 -1 -1 nan
nan nan nan nan nan nan nan nan nan nan nan nan nan nan nan nan nan nan nan nan nan nan nan nan nan nan nan nan nan nan nan nan nan nan nan nan nan nan nan nan nan nan nan nan nan nan nan nan nan nan nan nan nan nan nan nan nan nan nan nan nan nan nan nan nan nan nan nan nan
Wind_Speed
25 25 25 25 25 25 26 26 26 27 27 27 27 27 27 26 26 26 25 25 25 25 25 25 24 24 23 22 22 21 20 19 18 18 17 17 16 15 14 13 11 10 8 7 6 6 6 7 7 6 6 6 6 6 6 7 9 11 12 13 14 15 16 18 21 24 28 31 33
25 25 25 24 24 24 24 24 25 25 25 26 26 26 26 26 26 26 25 25 25 25 24 24 24 24 23 23 22 22 21 20 19 19 18 17 17 16 15 14 13 12 10 8 7 6 6 6 7 7 6 6 7 7 7 7 7 8 9 11 13 14 14 16 18 20 23 26 29
24 24 24 24 24 23 23 23 23 24 24 24 24 24 24 25 25 25 25 25 24 24 24 24 24 24 23 23 23 22 22 21 20 20 19 18 17 16 16 15 14 13 12 11 9 8 7 7 7 7 7 7 7 7 7 7 7 7 8 9 10 12 13 14 15 17 19 21 24
24 24 24 24 24 23 23 22 22 22 22 23 23 23 23 23 23 23 23 23 23 24 24 24 24 24 23 23 23 22 22 22 21 21 20 19 18 17 17 16 15 15 14 13 11 10 9 8 7 8 8 8 7 7 7 7 7 8 8 8 9 10 11 12 13 14 16 18 20
23 23 23 23 23 23 22 22 22 21 21 21 21 22 22 22 22 22 22 22 22 23 23 23 24 23 23 23 23 22 22 22 22 21 21 21 20 19 18 17 16 15 15 14 13 12 11 9 8 8 8 8 8 8 8 7 8 8 8 8 8 9 10 11 12 13 14 15 17
21 21 21 21 21 21 21 21 21 21 21 21 21 21 21 21 21 21 21 21 21 21 22 22 23 23 23 23 22 22 22 22 22 21 21 21 21 20 20 19 18 17 16 15 15 14 13 11 10 9 8 8 8 8 8 8 8 8 8 7 7 8 9 11 12 12 13 14 15
20 20 19 19 19 19 20 20 20 20 20 20 20 20 20 20 19 19 20 20 20 20 21 21 21 22 22 22 22 22 22 22 22 21 21 21 21 21 20 20 19 18 17 16 16 15 15 14 12 11 10 9 8 8 8 8 8 8 8 7 7 7 8 9 10 11 12 13 14
19 19 18 18 18 18 18 18 19 19 19 20 20 20 19 19 18 18 19 19 19 20 20 20 20 21 21 21 22 22 22 22 21 21 21 21 21 20 20 20 20 20 19 18 17 17 16 15 14 13 12 10 9 9 8 8 8 8 8 8 8 7 8 8 9 9 11 12 13
18 18 18 18 17 17 17 17 17 17 18 18 18 19 19 18 18 18 19 19 19 19 19 19 19 19 19 20 20 21 21 21 21 21 21 21 21 20 20 20 19 20 20 19 19 18 17 16 16 15 14 12 11 10 9 8 8 8 8 8 8 7 7 7 7 7 8 9 11
19 18 18 18 17 17 17 16 16 17 17 17 17 17 18 18 18 18 18 19 18 18 18 18 19 18 18 18 19 19 20 20 20 20 20 20 20 20 20 20 19 19 19 19 19 19 19 18 17 16 15 14 13 12 11 10 9 8 8 8 8 7 6 6 5 5 5 5 7
19 19 18 18 18 17 17 16 16 16 16 16 16 17 17 17 18 18 18 18 18 18 18 18 18 18 18 18 18 18 18 19 19 19 19 19 19 19 19 19 19 18 18 18 18 18 18 19 18 17 16 15 14 13 12 11 10 10 9 9 8 8 7 6 5 4 3 3 4
20 20 19 19 18 18 17 17 17 17 17 17 17 17 17 17 17 18 18 18 18 18 18 18 18 18 18 18 17 17 17 17 18 18 18 18 18 18 18 18 18 18 18 17 17 17 17 18 18 18 17 17 16 14 13 12 11 11 11 10 10 9 8 7 7 6 5 5 4
21 20 20 20 19 19 19 18 18 18 17 17 17 17 17 17 17 18 18 18 18 18 18 18 18 18 18 18 17 17 16 16 17 17 17 17 17 17 17 17 18 18 17 17 17 16 16 16 16 17 17 17 17 16 15 14 12 12 11 11 11 11 10 10 9 9 8 7 7
21 21 21 21 21 20 20 20 19 19 19 18 18 18 18 17 17 18 18 18 18 19 19 18 18 18 18 18 18 17 17 16 16 16 16 17 17 17 17 17 17 17 17 17 17 17 16 16 15 15 16 16 16 16 16 15 14 13 12 11 11 12 11 11 11 11 10 10 9
22 22 22 22 22 22 21 21 21 21 20 20 19 19 18 18 18 18 18 18 18 18 19 19 19 19 19 19 19 18 18 17 16 16 16 16 16 16 16 16 16 17 17 17 17 17 16 16 15 15 15 15 15 15 16 16 15 15 13 12 11 11 12 12 12 12 12 11 11
22 22 22 22 22 23 23 23 22 22 21 21 20 20 19 19 19 19 19 19 19 18 19 19 19 19 19 19 19 19 19 19 18 17 17 16 16 16 16 16 16 16 17 17 17 17 16 16 15 15 15 14 14 14 15 15 15 15 15 14 13 12 12 12 12 13 13 13 12
22 23 23 23 23 23 23 23 23 23 23 22 22 21 20 20 20 19 19 19 19 19 19 19 19 19 19 19 19 20 20 20 20 19 18 18 17 17 16 16 16 17 17 17 16 16 16 16 16 15 15 14 14 14 14 14 15 15 15 15 14 13 12 12 12 13 13 13 13
23 23 24 24 24 24 24 24 24 24 23 23 23 22 21 21 21 20 20 19 19 19 19 19 19 19 19 19 19 20 20 20 20 20 20 19 18 18 17 17 17 17 17 17 17 17 16 16 16 16 15 14 14 14 14 14 14 14 14 14 14 14 14 13 12 12 13 13 14
23 24 24 25 25 25 25 24 24 24 24 23 23 23 22 22 21 21 20 20 20 20 20 20 19 19 19 19 19 19 19 20 20 20 20 20 19 19 18 18 17 17 17 17 17 17 17 16 16 16 16 15 14 14 14 14 14 14 14 14 14 14 14 13 13 12 12 12 13
23 23 24 25 25 25 25 25 25 25 24 24 23 23 22 22 22 21 21 21 20 20 20 20 20 20 20 19 19 19 19 19 19 20 20 20 20 20 19 19 18 18 17 17 17 17 17 17 17 16 16 16 15 15 14 14 14 14 14 14 14 14 13 13 13 12 12 11 11
22 23 24 24 25 25 25 26 25 25 25 24 24 23 23 22 22 22 21 21 21 21 21 21 21 21 20 20 20 20 19 19 19 19 20 20 20 20 20 20 20 19 18 18 18 18 18 18 17 17 16 16 15 15 15 15 14 14 14 14 14 14 13 13 13 12 11 11 10
22 23 23 24 24 25 25 25 25 25 25 25 25 24 24 23 22 22 21 21 21 21 21 21 21 21 21 21 21 20 20 20 19 19 19 20 20 20 20 20 20 20 19 19 19 19 19 18 18 18 17 16 16 15 15 15 15 14 14 14 14 14 14 14 13 13 12 11 10
23 23 24 24 24 24 24 25 25 25 25 25 26 25 25 24 24 23 22 22 21 21 21 21 21 21 21 21 21 21 21 20 20 20 19 20 20 20 20 20 20 20 20 20 20 20 20 20 19 19 18 17 16 16 15 15 15 15 15 14 14 14 14 14 14 14 13 13 12
24 24 25 25 25 25 25 25 25 25 25 25 26 26 26 26 25 24 24 23 22 21 21 21 21 21 21 21 21 21 21 21 21 21 20 20 20 20 20 20 20 20 20 20 20 20 20 20 20 20 19 19 18 17 16 16 15 15 15 15 14 14 14 14 14 14 14 14 14
25 26 26 26 26 26 25 25 25 25 25 25 25 25 26 26 26 26 25 24 23 23 22 22 21 21 21 21 21 21 21 21 21 21 21 20 20 20 20 20 20 20 20 20 20 20 20 20 20 20 21 20 20 19 18 17 16 16 16 15 15 15 14 14 14 14 14 14 15
26 27 27 27 27 27 26 26 25 25 25 25 25 25 25 26 26 26 26 26 25 24 24 23 22 22 21 21 21 21 21 21 21 21 21 21 21 20 20 20 20 21 21 20 20 20 20 19 19 19 20 20 20 20 19 18 17 17 16 16 16 15 15 15 14 14 14 14 15
27 27 27 28 28 27 27 27 26 26 25 25 25 25 25 25 26 26 26 26 26 26 26 25 24 24 23 22 22 21 21 21 21 21 21 21 21 21 21 20 20 21 21 21 21 21 20 20 19 19 19 19 20 20 20 20 19 19 18 17 17 16 16 15 15 14 14 14 14
26 27 27 28 28 28 28 27 27 27 26 26 26 26 26 25 26 26 26 26 27 27 27 27 26 26 25 24 23 22 22 21 21 21 21 21 21 21 21 21 21 20 21 21 21 21 21 21 20 19 19 19 19 20 20 21 21 21 20 19 18 18 17 17 16 15 15 14 14
25 26 26 27 27 27 27 27 27 27 27 27 27 27 27 27 27 27 27 27 27 28 28 28 28 28 27 26 26 25 24 23 22 21 21 22 22 22 21 21 21 21 21 21 21 22 22 22 21 21 20 19 19 19 20 20 21 21 21 21 20 19 19 18 17 17 16 16 15
24 25 25 25 26 26 26 26 27 27 27 28 28 28 28 29 29 29 29 29 29 29 29 29 29 29 29 28 28 27 26 25 24 23 22 22 22 22 22 22 21 21 21 21 21 21 22 22 22 22 21 21 20 20 20 21 21 21 22 22 22 21 21 20 19 18 18 17 17
23 23 23 24 24 25 25 25 26 26 27 27 28 28 29 29 30 30 30 31 31 31 31 31 31 31 30 30 30 29 29 28 27 26 25 24 23 23 22 22 22 22 21 21 21 21 22 22 23 23 23 22 22 22 22 22 22 22 22 22 22 23 22 22 21 20 20 19 18
22 22 22 23 23 24 24 24 25 25 26 27 27 28 29 29 30 31 31 31 32 32 33 33 33 33 33 32 32 31 31 30 29 28 27 26 25 25 24 23 22 22 21 21 21 21 22 22 23 23 24 23 23 23 23 23 23 23 23 23 23 23 23 23 23 23 22 21 20
21 21 22 22 23 23 24 24 25 26 26 27 27 28 29 30 30 31 31 32 32 33 34 34 34 34 34 34 34 34 33 33 32 31 30 29 28 27 26 25 24 22 21 21 21 21 21 22 23 23 24 24 25 25 25 25 25 25 24 24 24 23 23 24 24 24 24 23 22
21 21 22 22 23 24 24 25 26 26 27 28 28 29 29 30 31 31 32 32 33 33 34 34 34 35 35 35 35 35 35 35 34 34 33 32 31 30 29 28 26 24 23 22 21 21 21 22 22 23 24 25 25 26 26 27 27 27 26 26 25 25 24 24 24 25 25 25 24
21 22 23 23 24 25 25 26 27 27 28 29 29 30 30 30 31 32 32 33 33 34 34 34 35 35 35 35 36 36 36 36 36 36 35 35 34 33 33 31 29 27 25 24 23 22 22 21 22 22 23 24 26 26 27 28 28 28 28 28 27 27 26 25 25 25 25 25 25
21 22 23 24 25 26 26 27 28 29 29 30 30 31 31 31 32 32 32 33 34 34 35 35 35 35 36 36 36 36 36 37 37 37 37 36 36 36 35 35 33 31 29 27 25 24 23 22 22 22 23 24 25 26 27 28 29 29 29 30 29 29 28 27 26 26 25 25 25
22 23 24 25 26 27 27 28 29 30 30 31 31 32 32 33 33 33 33 34 34 35 36 36 36 36 36 36 37 37 37 37 37 37 37 37 37 37 37 37 36 34 33 31 29 27 25 24 23 22 22 23 24 26 27 28 29 29 30 30 30 30 29 29 28 27 26 26 26
23 24 25 26 27 28 29 29 30 31 32 32 33 33 33 34 34 34 34 34 36 36 37 37 36 36 37 37 37 37 37 37 37 37 38 38 38 38 38 38 38 37 36 34 32 30 28 26 25 23 22 23 24 25 26 27 28 29 30 30 31 31 30 30 29 29 28 27 27
24 25 26 27 28 29 30 31 32 32 33 34 34 35 35 35 35 36 36 36 36 37 38 38 38 37 37 37 37 38 38 37 37 37 38 38 38 38 38 39 39 38 37 36 35 33 31 29 27 25 24 23 24 24 25 26 28 29 30 30 31 31 31 30 30 30 29 29 28
25 26 27 28 29 30 31 32 33 33 34 35 36 36 36 37 37 37 37 37 37 38 38 39 39 38 38 38 38 39 39 38 38 38 38 38 38 38 38 39 39 39 38 37 36 35 33 31 29 27 26 25 24 24 25 26 27 28 29 30 30 31 31 31 30 30 30 30 29
26 27 28 29 30 31 32 33 34 35 35 36 37 37 38 38 38 38 39 39 39 39 39 40 40 39 39 39 39 39 39 39 39 38 38 38 38 38 38 39 39 39 38 37 37 36 34 33 31 29 27 26 25 25 25 25 26 28 29 29 30 30 31 31 30 30 30 30 29
Wind_Direction
21 21 21 21 20 20 20 20 20 19 19 18 17 17 16 16 16 16 15 15 15 15 14 14 14 15 16 15 13 11 9 6 3 1 359 358 356 354 353 353 355 357 1 2 1 359 356 350 347 337 325 314 310 312 310 300 284 272 263 258 255 250 246 241 237 234 231 230 229
15 16 16 16 16 16 16 16 16 16 15 15 15 14 13 13 13 13 13 13 14 14 13 12 12 13 14 15 15 14 13 11 8 5 2 359 357 354 352 351 350 350 351 353 356 358 358 352 350 347 338 322 310 305 306 308 303 291 278 270 264 259 255 252 248 243 238 235 233
10 10 10 10 10 11 12 13 12 12 11 11 11 11 11 11 11 11 11 11 11 11 10 10 10 10 10 12 14 15 15 15 13 10 7 4 1 357 354 350 348 346 345 345 345 346 346 347 348 348 346 338 326 315 307 303 300 299 294 284 275 268 264 261 259 255 251 247 242
8 7 6 6 7 8 8 9 8 8 7 6 6 6 6 7 8 8 8 8 8 8 8 8 8 7 7 8 10 12 14 15 16 15 13 11 7 3 359 354 349 345 342 340 339 339 338 337 337 339 341 341 337 329 318 308 302 298 297 294 286 279 273 268 266 263 261 259 255
9 8 7 6 5 5 5 5 4 4 3 2 1 1 1 2 3 4 5 5 5 6 6 5 5 4 4 4 5 7 9 11 13 15 16 15 14 11 7 2 356 350 344 340 337 336 335 334 332 333 336 339 336 334 330 322 314 308 302 296 289 284 280 276 273 270 268 266 264
13 11 9 7 5 4 3 2 1 0 360 358 357 356 357 357 358 359 0 1 2 3 3 2 1 1 1 1 1 2 3 5 7 10 12 15 16 15 14 10 6 359 352 346 340 336 333 331 329 327 327 330 334 335 332 327 325 322 316 304 295 287 282 279 278 276 274 271 269
16 15 13 11 8 6 3 1 360 358 356 355 355 354 354 355 355 355 356 356 356 357 358 358 358 358 358 358 357 358 358 360 1 3 5 9 11 14 15 15 13 9 4 357 349 342 336 332 328 325 322 320 321 324 325 325 326 327 325 317 307 297 290 285 281 279 277 275 272
16 15 14 13 11 8 6 3 0 358 356 355 354 354 353 353 352 352 351 350 351 352 353 354 354 355 355 354 354 354 355 356 357 358 359 1 4 7 10 12 13 13 11 7 1 355 347 339 334 328 323 319 316 314 314 315 315 316 318 318 315 306 297 290 286 282 279 276 273
13 13 13 12 11 10 8 5 2 0 358 357 355 354 352 351 350 349 348 349 349 349 348 348 349 350 350 350 350 351 351 353 354 355 355 356 357 359 1 4 7 10 11 10 8 4 359 352 345 337 329 322 316 312 310 308 306 306 308 311 312 311 305 299 292 287 281 276 273
10 9 9 9 8 8 7 5 3 1 0 359 357 355 353 351 349 349 349 349 348 346 344 344 344 344 345 345 346 347 348 349 351 352 352 352 353 353 355 357 359 2 5 7 8 7 6 3 357 350 341 331 323 315 310 306 302 301 301 302 305 307 307 305 300 294 286 278 273
5 4 4 4 3 3 2 2 1 1 0 359 358 356 353 351 350 350 349 347 346 345 343 342 341 341 341 341 342 343 344 345 346 348 348 349 349 349 350 350 352 354 356 359 1 3 5 5 4 360 354 346 336 326 317 309 303 298 295 294 294 295 296 297 294 289 283 275 265
1 0 359 359 358 358 357 357 358 358 358 358 357 356 355 353 351 350 348 347 345 345 344 343 342 341 339 339 339 339 340 341 342 343 344 344 345 345 345 345 346 346 348 350 352 355 358 360 2 2 0 356 350 342 331 320 310 301 295 290 287 285 284 284 283 280 278 272 263
358 357 356 355 354 354 354 354 354 354 354 354 354 353 353 352 351 349 348 346 345 345 344 344 343 342 340 339 338 337 337 336 336 337 338 339 340 340 341 340 340 340 341 342 343 345 348 351 354 356 358 358 356 353 346 337 325 313 302 293 287 282 278 276 275 276 277 276 275
354 354 353 353 352 351 351 351 351 352 352 352 351 350 350 349 348 347 346 346 345 344 343 343 342 342 341 340 339 337 336 334 333 332 332 333 334 335 336 336 336 335 335 335 336 337 339 341 343 346 349 352 354 354 352 349 342 332 319 305 294 285 279 274 272 273 275 277 278
351 351 350 350 350 349 349 350 350 350 350 350 349 348 347 346 345 344 344 343 343 342 341 340 340 340 340 339 338 337 336 334 332 330 328 328 328 330 332 333 333 332 331 330 330 330 331 332 334 335 338 341 344 346 348 349 348 344 337 325 312 298 287 278 273 270 271 273 276
348 348 348 348 348 347 347 348 348 348 348 348 347 346 345 344 343 342 341 340 339 338 338 337 336 336 336 336 336 335 335 334 333 331 328 326 325 326 327 329 330 330 329 327 326 325 325 325 325 326 328 330 333 335 338 341 344 345 344 339 331 318 304 291 280 273 269 269 271
345 346 346 346 346 346 346 346 346 345 345 345 345 344 344 343 342 341 339 338 336 335 335 334 333 333 332 332 332 332 332 332 333 332 331 329 327 325 325 326 328 329 328 327 325 323 320 319 318 319 319 321 323 324 326 329 332 336 339 340 339 334 324 311 297 284 276 271 268
342 343 343 344 345 345 345 344 343 343 343 342 342 342 341 340 340 339 338 336 334 333 332 331 331 330 329 329 329 329 329 329 330 330 331 330 329 326 324 323 324 325 327 327 325 323 320 316 314 313 313 313 315 315 316 318 320 323 327 331 335 336 335 328 318 304 292 281 274
339 339 340 341 342 343 343 343 342 341 341 340 339 339 338 337 337 336 335 334 333 332 330 329 328 327 327 326 325 325 325 325 326 326 327 327 327 326 324 321 320 320 322 324 324 323 321 317 314 311 310 309 309 309 309 309 310 312 314 318 322 327 331 333 330 323 311 298 287
337 337 338 339 339 340 340 340 340 340 339 338 337 336 336 335 334 334 333 332 331 330 329 328 326 325 324 323 322 321 321 321 321 321 322 322 323 323 323 322 320 318 318 319 320 321 321 320 317 313 310 308 306 305 305 304 303 303 304 306 309 313 318 323 327 327 324 315 302
336 337 337 337 337 337 337 337 336 336 336 336 335 335 334 334 333 333 332 331 330 328 327 326 325 323 322 321 320 319 318 318 317 317 317 317 318 319 319 320 319 318 316 315 314 315 317 318 318 316 312 309 306 305 303 302 300 298 297 297 298 300 303 307 312 317 320 321 315
336 336 336 336 335 334 334 333 333 332 332 332 332 332 332 332 332 332 331 330 329 327 326 324 323 322 321 320 319 317 316 315 314 313 312 312 313 313 314 315 316 316 315 313 312 310 311 312 314 314 313 311 308 305 303 301 299 297 294 292 291 291 292 293 297 301 305 310 313
335 335 334 334 333 332 331 330 329 329 328 328 328 328 328 329 330 330 330 329 328 327 325 324 323 322 320 319 318 316 314 312 311 309 308 308 307 307 308 308 309 311 312 312 311 310 308 308 308 309 310 309 308 306 304 302 300 298 294 291 288 286 285 285 286 288 291 295 299
333 333 332 331 331 330 329 328 327 326 325 325 324 324 325 325 326 327 327 328 328 327 326 324 323 322 320 318 317 315 313 311 309 307 306 304 303 303 302 303 303 304 306 308 309 309 308 307 306 306 306 306 305 305 304 303 301 300 298 294 290 286 283 282 281 281 281 283 286
331 330 330 329 329 328 327 326 325 324 324 323 322 322 321 321 322 323 324 325 325 326 325 325 323 322 320 319 317 315 314 312 310 308 305 303 301 300 299 298 298 299 300 302 303 304 305 305 305 304 304 303 303 302 301 301 301 300 299 296 293 290 286 283 281 279 278 278 278
329 328 327 327 327 326 326 325 324 323 322 321 320 320 319 320 320 320 321 321 322 323 323 323 323 322 321 320 318 317 315 313 311 309 307 304 302 299 297 296 295 295 295 296 297 298 299 300 301 301 301 301 301 300 299 298 298 298 297 296 294 292 289 286 284 282 279 277 275
326 326 325 325 324 324 324 323 323 322 321 321 320 319 319 319 319 319 319 319 319 319 320 320 321 321 321 321 320 319 317 315 313 311 309 307 305 302 299 296 294 293 293 292 292 293 294 294 295 295 296 297 297 297 297 297 296 295 294 294 293 292 290 288 286 284 282 279 276
324 323 323 322 322 321 321 321 321 321 321 320 320 320 320 319 319 318 318 318 317 317 317 318 319 319 320 320 320 319 318 317 315 313 311 309 306 304 301 298 295 293 291 290 289 290 290 290 290 290 290 291 291 292 293 293 294 293 292 292 291 290 289 289 287 286 284 282 279
323 322 321 320 320 319 319 319 319 319 320 320 320 320 320 320 319 319 318 318 318 317 318 318 318 318 318 318 318 318 317 316 316 315 313 310 308 305 303 301 297 294 291 289 288 287 287 287 286 286 286 285 285 285 286 287 289 290 290 290 290 289 288 287 287 286 285 284 282
321 321 320 319 318 318 317 318 318 318 318 318 318 318 318 319 319 319 319 319 319 319 318 318 317 317 317 317 317 316 316 315 315 314 313 311 309 307 305 302 300 297 294 291 288 286 285 284 284 283 283 282 281 281 281 281 282 284 285 286 287 287 287 286 286 285 285 285 285
320 320 319 318 318 317 317 317 316 316 316 316 316 316 316 317 317 318 319 319 319 318 318 317 317 316 316 316 316 315 315 314 314 313 312 310 309 307 305 303 301 299 297 293 290 286 284 282 282 281 281 280 279 278 277 277 277 278 279 281 282 284 284 285 284 284 284 285 285
319 319 319 318 318 317 317 317 317 317 316 316 316 315 315 315 315 316 316 317 317 317 316 316 316 315 315 315 315 314 314 313 313 312 311 310 308 307 305 303 302 300 299 296 292 289 285 282 280 280 279 279 278 277 276 275 274 274 274 275 276 278 279 281 281 282 282 282 283
319 319 319 319 318 318 318 318 318 318 317 317 316 316 316 315 314 313 314 314 315 315 315 315 315 315 314 314 314 313 313 312 312 311 311 310 308 307 305 303 301 300 299 297 294 290 287 284 281 279 278 278 277 276 275 274 273 273 272 272 271 272 273 275 277 278 279 279 280
319 319 319 319 319 319 319 320 320 319 319 318 317 317 316 315 315 314 314 313 313 313 312 312 312 312 312 312 312 312 311 311 310 310 310 309 309 307 305 303 301 300 299 297 294 292 289 286 283 280 278 277 276 275 275 274 274 273 272 271 270 269 269 270 271 273 274 276 277
319 319 319 319 319 320 320 320 321 320 320 319 318 317 316 316 315 315 314 313 312 311 310 310 309 309 309 308 308 309 309 308 308 308 308 308 308 307 306 304 303 301 300 297 295 293 291 288 285 282 280 278 277 275 275 274 274 273 272 272 271 270 268 267 267 268 270 271 273
319 320 320 320 320 320 321 321 321 321 320 320 319 318 317 316 315 314 314 313 312 311 309 309 308 307 307 306 306 306 306 306 306 306 306 306 307 307 306 305 304 302 301 299 297 295 293 290 287 284 282 280 278 276 275 274 274 273 272 272 271 270 269 268 267 266 266 267 269
318 319 319 320 320 320 321 321 321 321 320 320 319 318 318 317 316 315 314 313 313 311 310 309 308 307 306 306 305 304 303 303 304 303 303 304 304 305 305 304 303 303 302 301 300 298 296 293 290 287 285 282 279 278 276 275 274 273 272 271 270 270 269 268 267 266 265 265 265
317 318 318 319 319 320 320 320 320 320 320 319 319 318 317 317 316 315 314 314 314 313 311 310 308 307 306 305 304 303 301 301 301 301 301 301 301 302 302 302 302 301 302 302 302 300 299 296 294 291 288 285 282 280 279 277 276 274 273 272 271 270 269 268 268 267 266 264 264
315 316 317 318 318 319 319 319 319 319 319 318 318 317 317 316 315 315 314 314 314 313 312 311 309 307 305 305 303 302 300 299 298 299 299 299 299 299 300 300 299 299 300 301 301 301 300 299 297 294 291 287 285 282 280 279 277 275 273 272 271 270 269 268 268 267 266 265 264
314 315 316 316 317 317 317 317 317 317 317 317 317 316 316 315 315 314 314 314 313 312 311 310 308 307 305 305 303 302 300 298 296 296 297 297 297 297 297 297 297 297 297 298 299 300 300 299 298 296 293 290 287 284 282 280 278 275 273 272 272 271 270 268 267 267 266 265 264
312 313 314 315 315 316 316 316 316 316 316 315 315 315 315 314 314 314 314 313 312 311 310 309 308 306 305 304 303 302 300 298 296 295 295 295 295 295 295 295 295 295 295 295 296 297 298 298 298 297 295 292 289 287 284 281 279 276 274 272 271 271 270 269 268 266 265 265 263
Height
1470 1469 1468 1468 1467 1467 1466 1465 1464 1463 1462 1461 1460 1459 1458 1457 1457 1456 1455 1454 1453 1452 1451 1450 1449 1449 1448 1447 1447 1446 1445 1445 1444 1444 1443 1443 1442 1442 1441 1440 1439 1438 1437 1437 1437 1436 1436 1436 1437 1437 1436 1436 1436 1436 1436 1436 1435 1435 1435 1435 1435 1436 1436 1437 1437 1437 1437 1438 1438
1470 1469 1469 1468 1468 1467 1467 1466 1465 1464 1463 1462 1461 1460 1459 1458 1457 1457 1455 1454 1453 1453 1452 1451 1450 1449 1448 1447 1447 1446 1445 1444 1444 1443 1443 1442 1442 1441 1441 1440 1439 1439 1438 1437 1437 1437 1436 1436 1436 1436 1436 1435 1435 1436 1435 1435 1434 1434 1434 1434 1434 1434 1435 1435 1435 1436 1436 1437 1437
1470 1470 1469 1468 1467 1467 1466 1466 1465 1464 1464 1463 1462 1461 1460 1459 1458 1457 1456 1455 1454 1453 1452 1452 1451 1450 1449 1448 1447 1446 1445 1444 1444 1443 1442 1442 1441 1441 1440 1440 1439 1439 1438 1438 1437 1437 1437 1436 1436 1435 1435 1435 1435 1435 1434 1434 1433 1433 1433 1433 1433 1433 1433 1433 1433 1434 1435 1435 1436
1471 1470 1469 1468 1467 1467 1466 1466 1465 1465 1464 1463 1462 1462 1461 1460 1459 1458 1457 1456 1455 1454 1453 1452 1451 1450 1449 1448 1447 1447 1446 1445 1444 1443 1442 1442 1441 1440 1440 1439 1439 1438 1438 1437 1437 1437 1437 1436 1436 1435 1435 1435 1434 1434 1433 1433 1432 1432 1433 1432 1432 1432 1432 1432 1432 1432 1433 1433 1434
1471 1470 1469 1468 1467 1467 1466 1465 1465 1464 1464 1463 1463 1462 1461 1460 1459 1458 1457 1457 1455 1454 1453 1452 1452 1451 1450 1449 1448 1447 1446 1445 1444 1443 1442 1442 1441 1440 1439 1439 1438 1438 1437 1437 1437 1437 1436 1436 1436 1435 1435 1434 1434 1433 1432 1432 1432 1432 1432 1431 1431 1431 1431 1431 1431 1431 1432 1432 1433
1471 1470 1469 1469 1468 1467 1466 1466 1465 1464 1463 1463 1462 1462 1461 1460 1459 1458 1457 1457 1456 1455 1454 1453 1452 1451 1450 1449 1448 1447 1446 1445 1444 1443 1442 1442 1441 1440 1439 1439 1438 1438 1437 1437 1436 1436 1436 1436 1435 1435 1435 1434 1434 1433 1432 1432 1431 1431 1431 1430 1430 1430 1430 1430 1430 1430 1431 1431 1432
1471 1470 1469 1469 1468 1467 1467 1466 1465 1464 1463 1462 1462 1461 1461 1460 1459 1458 1457 1457 1456 1455 1454 1453 1452 1451 1450 1449 1448 1447 1447 1446 1445 1444 1443 1442 1441 1440 1439 1439 1438 1437 1437 1437 1436 1436 1435 1435 1435 1434 1434 1434 1434 1433 1432 1432 1431 1431 1430 1430 1430 1430 1430 1429 1429 1429 1430 1430 1431
1471 1470 1469 1469 1468 1467 1467 1466 1465 1464 1463 1462 1461 1461 1460 1459 1459 1458 1457 1457 1455 1454 1454 1453 1452 1451 1450 1449 1448 1447 1447 1446 1445 1444 1443 1442 1441 1441 1440 1439 1438 1437 1437 1436 1436 1435 1435 1434 1434 1433 1433 1433 1433 1433 1432 1432 1431 1431 1430 1430 1429 1429 1429 1429 1428 1428 1429 1430 1430
1471 1470 1469 1469 1468 1467 1467 1466 1465 1464 1463 1462 1461 1461 1460 1459 1458 1457 1457 1456 1455 1454 1453 1453 1452 1451 1450 1449 1448 1447 1447 1446 1445 1444 1443 1442 1442 1441 1440 1439 1438 1437 1437 1436 1436 1435 1434 1434 1433 1433 1432 1432 1432 1432 1432 1432 1431 1431 1430 1430 1429 1429 1429 1428 1428 1428 1428 1429 1429
1471 1470 1469 1469 1468 1467 1467 1466 1465 1464 1463 1462 1462 1461 1460 1459 1458 1457 1456 1455 1455 1454 1453 1452 1452 1451 1450 1449 1448 1447 1447 1446 1445 1444 1443 1442 1442 1441 1440 1439 1438 1437 1437 1436 1436 1435 1434 1434 1433 1432 1432 1432 1432 1431 1431 1431 1431 1430 1430 1429 1429 1429 1429 1428 1428 1428 1428 1428 1428
1470 1469 1469 1468 1468 1467 1467 1466 1465 1464 1463 1462 1462 1461 1460 1459 1458 1457 1456 1455 1454 1454 1453 1452 1451 1451 1450 1449 1448 1447 1447 1446 1445 1444 1443 1442 1442 1441 1440 1439 1438 1437 1437 1436 1435 1435 1434 1433 1433 1432 1432 1431 1431 1430 1430 1430 1430 1430 1429 1429 1429 1429 1429 1428 1428 1428 1428 1427 1427
1470 1469 1468 1468 1467 1467 1466 1465 1464 1464 1463 1462 1461 1460 1459 1458 1457 1457 1456 1455 1454 1453 1452 1452 1451 1450 1449 1448 1448 1447 1446 1445 1444 1443 1443 1442 1441 1440 1440 1439 1438 1437 1437 1436 1435 1435 1434 1433 1433 1432 1432 1431 1430 1430 1429 1429 1429 1429 1429 1429 1428 1428 1428 1428 1428 1428 1427 1427 1427
1469 1468 1468 1467 1467 1466 1465 1465 1464 1463 1462 1462 1461 1460 1459 1458 1457 1457 1456 1455 1454 1453 1452 1452 1451 1450 1449 1448 1447 1447 1446 1445 1444 1443 1442 1442 1441 1440 1439 1438 1438 1437 1436 1436 1435 1434 1433 1433 1432 1432 1432 1431 1430 1430 1429 1428 1428 1428 1427 1428 1428 1428 1428 1427 1427 1427 1427 1426 1426
1468 1468 1467 1467 1466 1465 1464 1464 1463 1462 1462 1461 1460 1459 1459 1458 1457 1456 1455 1454 1453 1453 1452 1451 1450 1450 1449 1448 1447 1446 1446 1445 1444 1443 1442 1442 1441 1440 1439 1438 1437 1436 1436 1435 1434 1433 1433 1432 1432 1432 1431 1431 1430 1429 1429 1428 1427 1427 1427 1427 1426 1427 1427 1427 1426 1426 1426 1425 1425
1468 1467 1466 1466 1465 1464 1463 1463 1462 1461 1461 1460 1459 1459 1458 1457 1457 1456 1455 1454 1453 1452 1452 1451 1450 1449 1448 1447 1447 1446 1445 1444 1443 1442 1442 1441 1440 1439 1438 1437 1437 1436 1435 1434 1433 1433 1432 1432 1431 1431 1430 1430 1429 1429 1428 1428 1427 1427 1426 1425 1425 1425 1425 1425 1425 1424 1424 1424 1423
1467 1466 1465 1465 1464 1463 1462 1462 1461 1460 1460 1459 1458 1458 1457 1457 1456 1455 1454 1453 1452 1452 1451 1450 1449 1449 1448 1447 1446 1445 1444 1444 1443 1442 1441 1440 1440 1439 1438 1437 1436 1435 1435 1434 1433 1432 1432 1431 1430 1430 1429 1429 1428 1428 1428 1427 1427 1426 1426 1425 1424 1423 1423 1423 1422 1422 1422 1422 1422
1467 1466 1465 1464 1463 1462 1462 1461 1460 1459 1459 1458 1457 1457 1456 1456 1455 1454 1453 1452 1452 1451 1450 1449 1449 1448 1447 1447 1446 1445 1444 1443 1442 1441 1440 1440 1439 1438 1437 1437 1436 1435 1434 1433 1432 1432 1431 1430 1429 1429 1428 1428 1427 1427 1427 1426 1426 1426 1425 1424 1423 1423 1422 1421 1421 1420 1420 1420 1420
1466 1465 1464 1463 1462 1461 1461 1460 1459 1458 1458 1457 1457 1456 1455 1455 1454 1453 1452 1452 1451 1450 1449 1448 1448 1447 1446 1446 1445 1444 1443 1442 1442 1441 1440 1439 1438 1438 1437 1436 1436 1435 1434 1433 1432 1431 1431 1430 1429 1428 1427 1427 1426 1426 1426 1425 1425 1425 1424 1423 1423 1422 1421 1420 1420 1419 1418 1418 1418
1465 1464 1463 1462 1462 1461 1460 1459 1458 1457 1457 1456 1455 1455 1454 1453 1453 1452 1452 1451 1450 1449 1448 1447 1447 1446 1446 1445 1444 1443 1442 1442 1441 1440 1439 1439 1438 1437 1437 1436 1435 1435 1434 1433 1432 1431 1430 1429 1428 1427 1427 1426 1425 1425 1424 1424 1424 1423 1423 1423 1422 1422 1421 1420 1419 1418 1418 1417 1417
1465 1464 1463 1462 1461 1460 1459 1458 1457 1456 1456 1455 1454 1454 1453 1452 1452 1451 1450 1449 1449 1448 1447 1446 1446 1445 1444 1444 1443 1442 1442 1441 1440 1439 1439 1438 1437 1437 1436 1435 1435 1434 1433 1433 1432 1431 1430 1429 1428 1427 1426 1425 1424 1424 1423 1423 1422 1422 1422 1422 1421 1421 1420 1420 1419 1419 1418 1417 1417
1464 1463 1462 1461 1460 1459 1458 1457 1457 1456 1455 1454 1453 1452 1452 1451 1450 1450 1449 1448 1447 1447 1446 1445 1445 1444 1443 1442 1442 1441 1440 1440 1439 1438 1437 1437 1436 1436 1435 1434 1434 1433 1433 1432 1431 1431 1430 1429 1428 1427 1426 1425 1424 1423 1422 1422 1421 1421 1421 1420 1420 1420 1420 1419 1419 1418 1418 1417 1417
1463 1462 1462 1461 1460 1459 1458 1457 1456 1455 1454 1453 1452 1451 1450 1450 1449 1448 1448 1447 1446 1446 1445 1444 1443 1442 1442 1441 1440 1440 1439 1438 1438 1437 1437 1436 1435 1435 1434 1433 1433 1432 1432 1431 1430 1430 1429 1428 1427 1427 1426 1425 1424 1423 1422 1421 1420 1420 1419 1419 1419 1418 1418 1418 1418 1418 1417 1417 1417
1463 1462 1461 1460 1459 1458 1457 1456 1455 1454 1453 1452 1451 1450 1449 1448 1447 1447 1446 1446 1445 1444 1443 1442 1442 1441 1441 1440 1439 1438 1437 1437 1437 1436 1435 1435 1434 1433 1433 1432 1432 1431 1430 1430 1429 1428 1428 1427 1427 1426 1425 1424 1423 1422 1422 1421 1420 1419 1418 1417 1417 1417 1417 1417 1417 1417 1416 1416 1416
1462 1461 1460 1459 1458 1457 1456 1455 1454 1453 1452 1451 1450 1449 1448 1447 1446 1445 1445 1444 1443 1442 1442 1441 1440 1440 1439 1439 1438 1437 1436 1435 1435 1434 1434 1433 1433 1432 1431 1431 1430 1430 1429 1428 1428 1427 1427 1426 1425 1425 1424 1423 1423 1422 1421 1420 1419 1418 1417 1416 1416 1416 1415 1415 1415 1415 1415 1415 1415
1460 1459 1458 1458 1457 1456 1455 1454 1453 1452 1451 1450 1449 1448 1447 1446 1445 1444 1443 1442 1442 1441 1440 1439 1439 1438 1437 1437 1436 1436 1435 1434 1433 1432 1432 1431 1431 1430 1430 1429 1429 1428 1427 1427 1427 1426 1425 1425 1424 1423 1422 1422 1422 1421 1421 1420 1419 1418 1417 1416 1415 1414 1414 1414 1413 1413 1413 1413 1413
1459 1458 1457 1456 1455 1454 1453 1452 1452 1451 1450 1449 1448 1447 1446 1445 1444 1443 1442 1441 1440 1439 1438 1438 1437 1437 1436 1435 1435 1434 1433 1432 1432 1431 1430 1429 1429 1428 1428 1427 1427 1426 1426 1426 1425 1424 1424 1423 1423 1422 1421 1421 1420 1420 1419 1419 1418 1417 1417 1415 1414 1413 1412 1412 1412 1412 1412 1412 1412
1457 1457 1456 1455 1454 1453 1452 1451 1450 1449 1448 1447 1446 1445 1444 1443 1442 1442 1441 1440 1439 1438 1437 1436 1435 1435 1434 1433 1433 1432 1432 1431 1430 1429 1428 1427 1427 1427 1426 1426 1425 1425 1424 1424 1423 1423 1422 1422 1421 1421 1420 1419 1418 1418 1417 1417 1417 1416 1415 1415 1414 1413 1412 1411 1411 1411 1410 1410 1410
1456 1455 1454 1453 1452 1452 1450 1449 1448 1447 1447 1446 1445 1444 1443 1442 1441 1440 1439 1438 1437 1436 1435 1434 1434 1433 1432 1432 1431 1430 1430 1429 1428 1427 1427 1426 1425 1425 1424 1424 1423 1423 1422 1422 1422 1421 1420 1420 1419 1419 1418 1417 1417 1416 1415 1415 1414 1414 1414 1413 1412 1412 1411 1411 1410 1410 1409 1409 1409
1455 1454 1453 1452 1451 1450 1449 1448 1447 1446 1445 1444 1443 1442 1441 1440 1439 1438 1437 1437 1436 1434 1433 1432 1432 1431 1430 1429 1429 1428 1428 1427 1427 1426 1425 1424 1423 1423 1422 1422 1421 1421 1421 1420 1420 1419 1418 1418 1417 1417 1416 1415 1415 1414 1413 1413 1412 1412 1412 1411 1411 1411 1410 1410 1409 1409 1408 1408 1407
1453 1452 1452 1451 1450 1449 1448 1447 1446 1445 1444 1442 1442 1441 1439 1438 1437 1437 1436 1435 1433 1432 1432 1431 1430 1429 1428 1427 1427 1426 1425 1425 1424 1424 1423 1422 1422 1421 1420 1420 1419 1419 1419 1418 1418 1417 1417 1416 1415 1415 1414 1413 1412 1412 1411 1411 1410 1410 1409 1409 1409 1409 1408 1408 1408 1408 1407 1407 1407
1452 1451 1450 1449 1448 1447 1447 1446 1445 1443 1442 1442 1440 1439 1438 1437 1436 1435 1434 1433 1432 1431 1430 1429 1428 1427 1426 1425 1425 1424 1423 1422 1422 1422 1421 1420 1419 1419 1418 1418 1417 1417 1417 1416 1416 1415 1414 1414 1413 1412 1412 1411 1410 1409 1409 1408 1408 1407 1407 1407 1407 1407 1407 1406 1406 1407 1406 1406 1406
1451 1450 1449 1448 1447 1446 1445 1444 1443 1442 1441 1440 1439 1438 1437 1436 1435 1433 1432 1431 1430 1429 1428 1427 1426 1425 1424 1423 1422 1421 1421 1420 1419 1419 1418 1418 1417 1417 1416 1416 1415 1415 1415 1414 1414 1413 1412 1412 1411 1410 1410 1409 1408 1407 1407 1406 1406 1405 1405 1405 1404 1404 1404 1404 1404 1404 1404 1404 1404
1449 1448 1447 1447 1446 1445 1444 1443 1442 1441 1440 1439 1438 1437 1436 1434 1433 1432 1431 1430 1429 1427 1426 1425 1424 1422 1422 1421 1420 1419 1418 1417 1417 1416 1416 1415 1414 1414 1413 1413 1413 1413 1412 1412 1412 1411 1410 1410 1409 1408 1408 1407 1406 1405 1404 1404 1403 1403 1402 1402 1402 1402 1402 1402 1402 1402 1402 1402 1402
1448 1447 1446 1445 1444 1443 1442 1441 1440 1439 1438 1437 1436 1435 1434 1433 1432 1430 1429 1428 1427 1426 1425 1423 1422 1421 1420 1419 1418 1417 1415 1414 1414 1413 1412 1412 1411 1411 1410 1410 1410 1410 1410 1410 1409 1408 1408 1407 1407 1406 1406 1405 1404 1403 1402 1402 1401 1400 1400 1400 1400 1400 1400 1400 1400 1400 1400 1400 1400
1447 1446 1444 1443 1443 1442 1441 1440 1439 1438 1437 1436 1434 1433 1432 1432 1430 1429 1428 1427 1425 1424 1423 1422 1421 1420 1418 1417 1416 1415 1413 1412 1411 1410 1410 1409 1408 1407 1407 1407 1407 1407 1407 1407 1407 1406 1406 1405 1405 1404 1403 1402 1402 1401 1400 1399 1398 1398 1397 1397 1397 1397 1397 1397 1397 1397 1397 1397 1397
1445 1444 1443 1442 1441 1440 1439 1438 1437 1436 1435 1434 1433 1432 1431 1429 1428 1427 1426 1425 1423 1422 1421 1419 1418 1417 1416 1415 1414 1413 1412 1410 1409 1408 1407 1406 1405 1404 1403 1403 1403 1403 1404 1404 1404 1403 1403 1403 1402 1402 1401 1400 1399 1398 1397 1397 1396 1395 1395 1394 1394 1394 1394 1394 1394 1394 1394 1394 1394
1444 1443 1442 1441 1440 1438 1437 1437 1436 1434 1433 1432 1431 1430 1429 1427 1426 1425 1424 1423 1421 1420 1418 1417 1416 1415 1414 1412 1412 1410 1409 1408 1407 1406 1405 1404 1403 1402 1401 1399 1399 1399 1400 1400 1400 1400 1400 1400 1400 1399 1398 1398 1397 1396 1395 1394 1393 1393 1392 1392 1392 1391 1392 1392 1392 1392 1392 1392 1392
1442 1442 1440 1439 1438 1437 1436 1435 1434 1432 1431 1430 1429 1428 1427 1426 1424 1423 1422 1421 1419 1417 1416 1415 1414 1412 1411 1410 1409 1408 1407 1406 1405 1404 1402 1402 1401 1400 1398 1397 1396 1396 1396 1397 1397 1397 1397 1397 1397 1397 1396 1395 1394 1393 1392 1392 1391 1390 1390 1389 1389 1389 1389 1389 1389 1389 1389 1389 1389
1441 1440 1439 1437 1437 1435 1434 1433 1432 1431 1429 1428 1427 1426 1425 1423 1422 1421 1420 1419 1417 1416 1414 1412 1411 1410 1409 1408 1407 1405 1404 1403 1402 1402 1400 1399 1398 1397 1396 1395 1393 1393 1393 1393 1393 1393 1393 1393 1393 1393 1393 1392 1392 1391 1390 1389 1388 1387 1387 1386 1386 1386 1386 1386 1386 1386 1386 1386 1386
1439 1438 1437 1436 1435 1433 1432 1431 1430 1429 1427 1426 1425 1423 1422 1421 1420 1418 1417 1416 1415 1414 1412 1410 1409 1407 1407 1406 1404 1402 1401 1400 1399 1399 1398 1397 1396 1395 1394 1392 1391 1390 1390 1391 1390 1390 1390 1390 1390 1390 1390 1389 1389 1388 1387 1386 1385 1384 1384 1383 1383 1383 1383 1383 1383 1383 1383 1382 1383
1437 1436 1435 1434 1433 1432 1430 1429 1427 1426 1425 1424 1422 1421 1420 1419 1417 1416 1415 1414 1412 1411 1410 1408 1406 1405 1404 1403 1401 1400 1398 1397 1396 1396 1395 1394 1393 1392 1391 1390 1389 1388 1387 1387 1387 1387 1387 1387 1386 1386 1386 1386 1386 1385 1384 1384 1382 1382 1381 1381 1381 1380 1380 1379 1380 1380 1380 1380 1380